Regional Weather Roundup
Issued by NWS

Home | Current Version | Previous Version | Graphics & Text | Print | Product List | Glossary On
Versions: 1 2 3 4 5 6 7 8 9 10 11 12 13 14 15 16 17 18 19 20 21 22 23 24 25 26 27 28 29 30 31 32 33 34 35 36 37 38 39 40 41 42 43 44 45 46 47 48 49 50
000
ASUS43 KIND 300759
RWRIN

WEATHER ROUNDUP FOR INDIANA
NATIONAL WEATHER SERVICE INDIANAPOLIS IN
400 AM EDT THU MAR 30 2017

NOTE: "FAIR" INDICATES FEW OR NO CLOUDS BELOW 12,000 FEET WITH NO
SIGNIFICANT WEATHER AND/OR OBSTRUCTIONS TO VISIBILITY.

* - STATION DOES NOT REPORT WEATHER SUCH AS PRECIPITATION OR FOG.

+ - STATION NOT QUALITY CONTROLLED BY THE NATIONAL WEATHER SERVICE.
    USE DATA WITH CAUTION...ESPECIALLY DEWPOINT AND RELATIVE
    HUMIDITY OBSERVATIONS.

INZ001>003-010>013-019-020-300900-
NORTHWEST INDIANA

CITY           SKY/WX    TMP DP  RH WIND       PRES   REMARKS
KNOX *+        CLOUDY    45  23  42 E18G26    29.87F
MONTICELLO +   CLOUDY    46  38  73 E14G24    29.84F
VALPARAISO     TSTM      45  39  81 NE13      29.92R FOG

$$

LMZ046-743>745-300900-
SOUTHERN LAKE MICHIGAN

STATION/POSITION TIME  TEMP    WIND        PRES    WAVE
                       AIR SEA DIR/SP/G            HT
                 (UTC) (F)     (DEG/KT/KT) (MB)    (FT)
BURNS HARBOR     0740   43      60/ 16/ 20 1013.5F
MICHIGAN CITY    0730   44      40/ 10/ 16   N/A

$$

INZ004-005-014>016-021>024-300900-
NORTH CENTRAL INDIANA

CITY           SKY/WX    TMP DP  RH WIND       PRES   REMARKS
GOSHEN         CLOUDY    44  34  67 E20G28    29.93F
SOUTH BEND     LGT RAIN  44  35  70 E16G25    29.94F

$$

INZ006>009-017-018-025>027-300900-
NORTHEAST INDIANA

CITY           SKY/WX    TMP DP  RH WIND       PRES   REMARKS
ANGOLA *+      CLOUDY    43  34  70 E20       30.01F
FORT WAYNE     CLOUDY    44  36  73 E25G32    29.95F
KENDALLVILLE + CLOUDY    42  34  75 E18G25    29.98F

$$

INZ028-029-035-036-043>045-051>053-300900-
WEST CENTRAL INDIANA

CITY           SKY/WX    TMP DP  RH WIND       PRES   REMARKS
CRAWFORDSVL +  CLOUDY    51  44  76 E14G21    29.82F
GREENCASTLE +  CLOUDY    52  43  71 E9        29.82F
LAFAYETTE      CLOUDY    46  41  82 E17       29.82F
TERRE HAUTE    MOCLDY    56  46  69 SE8       29.78F

$$

INZ030>032-037>040-046>048-054>057-064-065-300900-
CENTRAL INDIANA

CITY           SKY/WX    TMP DP  RH WIND       PRES   REMARKS
GREENWOOD *+   CLOUDY    54  45  71 SE12G18   29.85F
INDIANAPOLIS   CLOUDY    54  43  66 E16       29.84F
-EAGLE CREEK   CLOUDY    54  42  64 E10       29.85F
KOKOMO +       MOCLDY    45  38  76 E21G31    29.86F
SHELBYVILLE    CLOUDY    53  44  71 E8        29.86F

$$

INZ033-034-041-042-049-050-058-059-300900-
EAST CENTRAL INDIANA

CITY           SKY/WX    TMP DP  RH WIND       PRES   REMARKS
MUNCIE         CLOUDY    48  39  71 E17       29.91F
RICHMOND +     CLOUDY    46  41  81 E13       29.93F

$$

INZ060-061-067>069-081>083-085>088-300900-
SOUTHWEST INDIANA

CITY           SKY/WX    TMP DP  RH WIND       PRES   REMARKS
EVANSVILLE     PTCLDY    60  51  72 E7        29.77F
HUNTINGBURG *+ MOCLDY    58  50  75 SE9       29.80F

$$

INZ062-063-066-070>080-084-089>092-300900-
SOUTH CENTRAL AND SOUTHEAST INDIANA

CITY           SKY/WX    TMP DP  RH WIND       PRES   REMARKS
BLOOMINGTON    CLOUDY    55  45  68 SE13G20   29.81F
MADISON *+     CLOUDY    52  45  76 E9G18     29.88F
SEYMOUR +      MOCLDY    54  45  71 SE7       29.85F

$$





USA.gov is the U.S. government's official web portal to all federal, state and local government web resources and services.